Regional Weather Roundup
Issued by NWS State College, PA

Home | Current Version | Previous Version | Graphics & Text | Print | Product List | Glossary Off
Versions: 1 2 3 4 5 6 7 8 9 10 11 12 13 14 15 16 17 18 19 20 21 22 23 24 25 26 27 28 29 30 31 32 33 34 35 36 37 38 39 40 41 42 43 44 45 46 47 48 49 50

000
ASUS41 KCTP 060610
RWRCTP

REGIONAL WEATHER ROUNDUP
NATIONAL WEATHER SERVICE STATE COLLEGE PA
200 AM EDT WED MAY 06 2015

Note: "fair" indicates few or no clouds below 12,000 feet with no
significant weather and/or obstructions to visibility.

* = STATION THAT DOES NOT REPORT PRECIPITATION /E.G. RAIN...SNOW...ETC/
    THUNDER OR FOG.

PAZ002>004-007>009-013>016-020>023-029>032-060700-
WESTERN PENNSYLVANIA

CITY           SKY/WX    TMP DP  RH WIND       PRES   REMARKS
ERIE           CLOUDY    49  48  97 CALM      30.26R FOG
MEADVILLE      LGT RAIN  59  57  93 CALM      30.25F FOG
FRANKLIN*      CLOUDY    59  55  88 CALM      30.29R
NEW CASTLE     FAIR      60  60 100 CALM      30.26S
BEAVER COUNTY  NOT AVBL
BUTLER*        CLEAR     57  55  94 NE5       30.26S
PITTSBURGH INT CLEAR     60  59  96 N3        30.23S
PITTSBURGH     CLEAR     66  55  67 CALM      30.22F
INDIANA*       CLOUDY    61  59  94 CALM      30.27F
LATROBE        CLEAR     57  57 100 CALM      30.25S
WASHINGTON CO* MOCLDY    55  54  94 CALM      30.25S VSB 1/4
$$

PAZ004>006-010>012-017>019-024>028-033>037-041-042-045-046-049>053-060700-
CENTRAL PENNSYLVANIA

CITY           SKY/WX    TMP DP  RH WIND       PRES   REMARKS
BRADFORD       LGT RAIN  54  53  97 E5        30.27F FOG
DUBOIS         CLOUDY    59  55  87 E7        30.25F FOG
CLEARFIELD     MOCLDY    57  56  96 CALM      30.26S
JOHNSTOWN      PTCLDY    62  54  74 S6        30.26S
ALTOONA        MOCLDY    61  56  83 CALM      30.25S
STATE COLLEGE  MOCLDY    60  59  96 CALM      30.25S
WILLIAMSPORT   CLOUDY    61  57  87 CALM      30.24S
SELINSGROVE    MOCLDY    62  61  96 CALM      30.23F FOG
FT INDIANTOWN  PTCLDY    61  60  97 W2        30.21F FOG
CAPITAL CITY   PTCLDY    64  61  90 CALM      30.21F
HARRISBURG     PTCLDY    66  62  87 SE3       30.20F
YORK           PTCLDY    62  58  86 CALM      30.22F
$$

PAZ038>040-043-044-047-048-054-055-060>062-067>071-060700-
EASTERN PENNSYLVANIA

CITY           SKY/WX    TMP DP  RH WIND       PRES   REMARKS
SCRANTON       LGT RAIN  64  47  53 NE8       30.25S
MOUNT POCONO   CLOUDY    62  41  46 N7        30.25F
ALLENTOWN      CLOUDY    66  57  72 CALM      30.20F
QUAKERTOWN*    CLOUDY    64  59  82 CALM      30.22F
READING        CLOUDY    66  60  81 CALM      30.20F
LANCASTER      PTCLDY    62  61  96 CALM      30.22F FOG
COATESVILLE    CLOUDY    63  63 100 SW3       30.23F FOG
POTTSTOWN      CLOUDY    63  59  87 CALM      30.22F
BLUE BELL      CLOUDY    70  59  68 CALM      30.20F
DOYLESTOWN     CLOUDY    66  56  70 CALM      30.20F
WILLOW GROVE   NOT AVBL
NORTH PHILA    MOCLDY    72  59  63 SW7       30.21F
PHILADELPHIA   CLOUDY    71  61  70 W8        30.20F
$$


USA.gov is the U.S. government's official web portal to all federal, state and local government web resources and services.